[[{"header":{"parameterUnit":"m.s-1","parameterCategory":1,"la1":30.2991,"la2":30.254,"lo1":-89.0895,"lo2":-89.0444,"dy":0.0017,"dx":0.0017,"nx":28,"ny":28,"refTime":"2023-07-23T09:00:00:Z","depth":0,"parameterNumber":2,"parameterNumberName":"U-component_of_WINDS"},"data":[0,0,0,0,0,0,0,0,0,0,0,0,0,0,0,0,0,0,0,0,0,0,0,0,0,0,0,0,0,0,0,0,0,0,0,0,0,0,0,0,0,0,0,0,0,0,0,0,0,0,0,0,0,0,0,0,0,0,-1.1037,-1.1037,0,-1.104,-1.104,-1.104,-1.0983,-1.0982,-1.098,-1.0979,-1.0984,-1.0986,-1.0987,0,0,0,0,0,0,0,0,0,0,0,0,0,-1.0983,-1.0984,-1.1037,-1.1037,-1.1037,-1.104,-1.104,-1.104,-1.0984,-1.0982,-1.098,-1.0978,-1.0983,-1.0985,-1.0987,0,0,0,0,0,0,0,0,0,0,0,0,0,-1.0998,-1.0985,-1.1037,-1.1009,-1.1007,-1.104,-1.104,-1.104,-1.0984,-1.0982,-1.0979,-1.0977,-1.0983,-1.0985,-1.0987,-1.1048,0,0,-1.0995,-1.0996,0,0,0,0,0,0,0,0,-1.0998,-1.1,-1.1013,-1.1011,-1.1008,-1.1009,-1.1023,-1.1043,-1.0985,-1.0993,-1.0979,-1.0976,-1.0994,-1.0995,-1.1001,-1.1048,-1.1048,-1.0995,-1.0996,-1.0997,-1.0998,0,0,0,0,0,0,0,-1.0997,-1.1,-1.1038,-1.1013,-1.1011,-1.0997,-1.0996,-1.1026,-1.1006,-1.0992,-1.0988,-1.0989,-1.0992,-1.0999,-1.1001,-1.1048,-1.0995,-1.0997,-1.0998,-1.0999,-1.1142,-1.1145,0,0,0,0,0,0,-1.0999,-1.0999,-1.1038,-1.1038,-1.0997,-1.0999,-1.0999,-1.1011,-1.1006,-1.1003,-1.0991,-1.0986,-1.0996,-1.0998,-1.1001,-1.107,-1.0997,-1.0999,-1.1001,-1.114,-1.1143,-1.1146,0,0,0,0,0,0,-1.0998,-1.1003,-1.1038,-1.1018,-1.1021,-1.1003,-1.1017,-1.1012,-1.1019,-1.1005,-1.1001,-1.1001,-1.0994,-1.0998,-1.1036,-1.1069,-1.1001,-1.1003,-1.1137,-1.1141,-1.1144,-1.1209,0,0,0,0,0,0,-1.0997,-1.1003,-1.1026,-1.1019,-1.1022,-1.1073,-1.1019,-1.1014,-1.1023,-1.1017,-1.1014,-1.1011,-1.0993,-1.1033,-1.1038,-1.1071,-1.1004,-1.1134,-1.1139,-1.1143,-1.1204,-1.1214,-1.1223,0,0,0,0,0,-1.0995,-1.1045,-1.1027,-1.1032,-1.105,-1.1075,-1.1077,-1.1055,-1.1026,-1.1048,-1.1039,-1.1011,-1.1064,-1.1037,-1.1043,-1.1077,-1.1132,-1.1138,-1.1143,-1.1199,-1.1212,-1.1223,0,0,0,0,0,0,-1.1059,-1.1044,-1.1024,-1.1073,-1.1076,-1.1065,-1.1094,-1.1069,-1.1081,-1.1075,-1.1047,-1.1047,-1.109,-1.1087,-1.1057,-1.1134,-1.1093,-1.11,-1.1134,-1.1146,-1.1156,-1.1156,-1.1006,0,0,0,0,0,-1.1078,-1.1099,-1.1085,-1.113,-1.1132,-1.1112,-1.1122,-1.1104,-1.1106,-1.1107,-1.1101,-1.1104,-1.1121,-1.1134,-1.1149,-1.1203,-1.1201,-1.1229,-1.1239,-1.1247,-1.1253,-1.1279,-1.1291,-1.1163,-1.1163,-1.1163,0,0,-1.1119,-1.1113,-1.1129,-1.1142,-1.1142,-1.1164,-1.1114,-1.114,-1.1156,-1.1112,-1.1147,-1.1142,-1.1144,-1.119,-1.121,-1.1189,-1.1288,-1.1254,-1.126,-1.1262,-1.1286,-1.1298,-1.1309,-1.1167,-1.1166,-1.1166,0,0,-1.1205,-1.1203,-1.1239,-1.1239,-1.1239,-1.1225,-1.1234,-1.1227,-1.1221,-1.1256,-1.1223,-1.1241,-1.1272,-1.1274,-1.1279,-1.1362,-1.1337,-1.1368,-1.1419,-1.1445,-1.1455,-1.1464,-1.1493,-1.1504,-1.1374,-1.1374,-1.1375,0,-1.1256,-1.1288,-1.1261,-1.1288,-1.1294,-1.1254,-1.1289,-1.1291,-1.1296,-1.1302,-1.1278,-1.1314,-1.1312,-1.1357,-1.1377,-1.1383,-1.1391,-1.1369,-1.1456,-1.1465,-1.1472,-1.1499,-1.151,-1.1378,-1.1378,-1.1377,-1.1377,0,-1.135,-1.1372,-1.1401,-1.1405,-1.1415,-1.1446,-1.1424,-1.1437,-1.1418,-1.1406,-1.1441,-1.1437,-1.145,-1.1459,-1.1442,-1.1501,-1.1488,-1.1461,-1.1419,-1.1489,-1.1514,-1.1524,-1.1384,-1.1382,-1.1381,-1.138,0,0,-1.1478,-1.1464,-1.1475,-1.1476,-1.1471,-1.1488,-1.1517,-1.1528,-1.1539,-1.1543,-1.1567,-1.1592,-1.1566,-1.1572,-1.1553,-1.1576,-1.1641,-1.1546,-1.1545,-1.1563,-1.1704,-1.1725,-1.1737,-1.1623,-1.1625,-1.1627,-1.1704,0,-1.156,-1.1608,-1.1584,-1.1635,-1.1654,-1.1614,-1.1639,-1.1639,-1.1629,-1.1644,-1.1633,-1.1651,-1.1615,-1.1618,-1.1639,-1.1629,-1.1669,-1.1623,-1.1644,-1.1646,-1.1645,-1.175,-1.1773,-1.1846,-1.1714,-1.1715,-1.1717,0,-1.1663,-1.167,-1.1723,-1.1712,-1.1719,-1.1742,-1.1749,-1.1764,-1.1762,-1.1753,-1.1758,-1.1733,-1.1761,-1.1719,-1.1756,-1.1725,-1.1732,-1.1728,-1.173,-1.1731,-1.1685,-1.1754,-1.1869,-1.188,-1.1732,-1.1731,-1.1729,0,-1.175,-1.1772,-1.1806,-1.1807,-1.1796,-1.1813,-1.1809,-1.1805,-1.1812,-1.1819,-1.1823,-1.1833,-1.1838,-1.1846,-1.1825,-1.1797,-1.1864,-1.1821,-1.1857,-1.1857,-1.1873,-1.1873,-1.199,-1.1879,-1.1878,-1.1878,-1.1878,0,-1.1844,-1.1878,-1.1844,-1.1865,-1.1901,-1.1872,-1.1909,-1.1901,-1.1897,-1.1915,-1.1882,-1.19,-1.187,-1.1885,-1.1869,-1.1901,-1.1904,-1.1897,-1.1892,-1.19,-1.19,-1.1904,-1.1898,-1.1881,-1.188,-1.188,-1.1879,0,-1.1948,-1.1927,-1.196,-1.1946,-1.1943,-1.197,-1.1958,-1.1976,-1.1962,-1.1986,-1.199,-1.1969,-1.1984,-1.1963,-1.1978,-1.1966,-1.201,-1.1998,-1.201,-1.2006,-1.2043,-1.204,-1.2167,-1.2182,-1.2061,-1.2063,-1.2064,0,-1.201,-1.2034,-1.2021,-1.203,-1.2028,-1.2044,-1.205,-1.2022,-1.2031,-1.2029,-1.2047,-1.206,-1.2068,-1.2095,-1.2081,-1.2091,-1.2078,-1.2122,-1.208,-1.2086,-1.2078,-1.2077,-1.2078,-1.2131,-1.2133,-1.2134,-1.2135,0,-1.2121,-1.2108,-1.2119,-1.2125,-1.2133,-1.2137,-1.2139,-1.2149,-1.2119,-1.213,-1.2144,-1.2151,-1.2163,-1.2176,-1.2182,-1.2178,-1.2152,-1.2148,-1.2157,-1.2165,-1.2171,-1.2167,-1.2033,-1.2145,-1.2144,-1.2144,-1.2143,-1.2143,-1.2205,-1.2224,-1.2217,-1.2229,-1.2227,-1.2228,-1.2244,-1.2231,-1.2243,-1.225,-1.2233,-1.2251,-1.2247,-1.2252,-1.225,-1.2264,-1.2245,-1.2258,-1.2261,-1.2265,-1.227,-1.2168,-1.2266,-1.2265,-1.2265,-1.2265,-1.2264,0,-1.2314,-1.2306,-1.2318,-1.232,-1.2329,-1.2301,-1.2301,-1.2311,-1.2327,-1.2324,-1.2333,-1.2348,-1.236,-1.2346,-1.2354,-1.2368,-1.2356,-1.2371,-1.237,-1.2369,-1.2287,-1.2278,-1.2381,-1.2381,-1.2381,-1.2381,-1.2381,-1.2381,-1.2371,-1.2401,-1.2388,-1.2416,-1.2408,-1.2425,-1.2427,-1.2428,-1.2426,-1.2444,-1.2453,-1.2443,-1.2436,-1.2443,-1.2452,-1.2447,-1.2452,-1.2471,-1.2463,-1.2386,-1.2375,-1.2364,-1.2356,-1.2473,-1.2473,-1.2543,-1.2544,-1.2544]},{"header":{"parameterUnit":"m.s-1","parameterCategory":1,"la1":30.2991,"la2":30.254,"lo1":-89.0895,"lo2":-89.0444,"dy":0.0017,"dx":0.0017,"nx":28,"ny":28,"refTime":"2023-07-23T09:00:00:Z","depth":0,"parameterNumber":3,"parameterNumberName":"V-component_of_WINDS"},"data":[0,0,0,0,0,0,0,0,0,0,0,0,0,0,0,0,0,0,0,0,0,0,0,0,0,0,0,0,0,0,0,0,0,0,0,0,0,0,0,0,0,0,0,0,0,0,0,0,0,0,0,0,0,0,0,0,0,0,-1.9295,-1.9296,0,-1.9397,-1.9399,-1.94,-1.9415,-1.9414,-1.9413,-1.9412,-1.9515,-1.9519,-1.9522,0,0,0,0,0,0,0,0,0,0,0,0,0,-1.911,-1.9114,-1.9295,-1.9296,-1.9298,-1.9397,-1.9399,-1.94,-1.9415,-1.9414,-1.9413,-1.9412,-1.9514,-1.9518,-1.9522,0,0,0,0,0,0,0,0,0,0,0,0,0,-1.9199,-1.9115,-1.9295,-1.9317,-1.932,-1.9397,-1.9399,-1.94,-1.9415,-1.9414,-1.9413,-1.9411,-1.9512,-1.9518,-1.9523,-1.9584,0,0,-1.9539,-1.9542,0,0,0,0,0,0,0,0,-1.9194,-1.9206,-1.9313,-1.9316,-1.9319,-1.9392,-1.9371,-1.9462,-1.9416,-1.9379,-1.9412,-1.9411,-1.9475,-1.9483,-1.9506,-1.9589,-1.9593,-1.954,-1.9543,-1.9546,-1.9547,0,0,0,0,0,0,0,-1.9188,-1.9202,-1.9336,-1.9314,-1.9318,-1.9321,-1.9332,-1.9388,-1.9434,-1.9382,-1.9384,-1.9396,-1.9477,-1.95,-1.9508,-1.9595,-1.954,-1.9545,-1.9548,-1.955,-1.9731,-1.9733,0,0,0,0,0,0,-1.9178,-1.9197,-1.9332,-1.9339,-1.9252,-1.9326,-1.9338,-1.937,-1.9433,-1.9441,-1.9397,-1.9396,-1.9492,-1.9502,-1.9512,-1.9587,-1.9546,-1.9551,-1.9554,-1.973,-1.9732,-1.9733,0,0,0,0,0,0,-1.9174,-1.919,-1.9328,-1.9268,-1.9286,-1.933,-1.9366,-1.9373,-1.9397,-1.9444,-1.9452,-1.9413,-1.9491,-1.9504,-1.9566,-1.9591,-1.9553,-1.9558,-1.9728,-1.973,-1.9733,-1.9738,0,0,0,0,0,0,-1.9169,-1.9189,-1.9213,-1.9268,-1.9289,-1.9381,-1.9368,-1.9376,-1.9406,-1.9406,-1.9461,-1.9469,-1.9491,-1.9558,-1.9571,-1.9597,-1.9562,-1.9726,-1.9729,-1.9732,-1.9735,-1.974,-1.9744,0,0,0,0,0,-1.9162,-1.921,-1.9214,-1.9231,-1.9321,-1.9383,-1.9395,-1.942,-1.9408,-1.9433,-1.9463,-1.9467,-1.9585,-1.9564,-1.9579,-1.9607,-1.9724,-1.9728,-1.9732,-1.9734,-1.9739,-1.9744,0,0,0,0,0,0,-1.9157,-1.9218,-1.9223,-1.9291,-1.9332,-1.9385,-1.9417,-1.9425,-1.9469,-1.9467,-1.9495,-1.9508,-1.9568,-1.9593,-1.9568,-1.9669,-1.9654,-1.9661,-1.965,-1.9656,-1.966,-1.9653,-1.9567,0,0,0,0,0,-1.9163,-1.9209,-1.926,-1.9315,-1.9335,-1.9372,-1.9401,-1.9416,-1.9459,-1.9476,-1.9511,-1.9552,-1.9598,-1.9628,-1.9673,-1.9739,-1.975,-1.9765,-1.977,-1.9773,-1.9779,-1.9814,-1.9821,-1.9745,-1.9745,-1.9745,0,0,-1.9178,-1.9217,-1.9244,-1.9315,-1.9348,-1.9395,-1.9387,-1.9437,-1.9471,-1.9484,-1.9544,-1.9571,-1.9618,-1.9681,-1.9711,-1.9705,-1.9802,-1.9777,-1.9779,-1.9784,-1.9818,-1.9826,-1.9832,-1.9747,-1.9747,-1.9747,0,0,-1.9228,-1.9262,-1.9311,-1.9345,-1.9395,-1.9419,-1.9431,-1.9483,-1.9502,-1.9563,-1.9573,-1.9613,-1.9693,-1.9726,-1.9753,-1.9813,-1.9819,-1.9827,-1.9849,-1.9883,-1.9889,-1.9895,-1.9916,-1.9923,-1.9832,-1.9832,-1.9832,0,-1.9239,-1.931,-1.9335,-1.9385,-1.9415,-1.9428,-1.9478,-1.9508,-1.9571,-1.9591,-1.9583,-1.9682,-1.9715,-1.9786,-1.98,-1.9822,-1.9836,-1.9822,-1.9886,-1.9892,-1.9898,-1.9918,-1.9926,-1.9833,-1.9833,-1.9833,-1.9833,0,-1.9322,-1.937,-1.9404,-1.9464,-1.9498,-1.9547,-1.9578,-1.9609,-1.9621,-1.9646,-1.9707,-1.9746,-1.9799,-1.9817,-1.9829,-1.9889,-1.9884,-1.9881,-1.9866,-1.9905,-1.9925,-1.9933,-1.9834,-1.9834,-1.9834,-1.9833,0,0,-1.9373,-1.9445,-1.9457,-1.9484,-1.954,-1.9578,-1.9626,-1.9679,-1.9704,-1.9746,-1.9787,-1.9853,-1.985,-1.9881,-1.9896,-1.9926,-1.9971,-1.9919,-1.9921,-1.9928,-2.0039,-2.0042,-2.0051,-1.9974,-1.9976,-1.9977,-2.0035,0,-1.943,-1.9519,-1.9542,-1.9616,-1.9661,-1.9673,-1.9715,-1.9753,-1.9777,-1.9818,-1.9843,-1.989,-1.9882,-1.9901,-1.9931,-1.9959,-1.9994,-1.9955,-2.0013,-2.0014,-2.0002,-2.0061,-2.0065,-2.0118,-2.0043,-2.0045,-2.0046,0,-1.9509,-1.9553,-1.9632,-1.968,-1.97,-1.9738,-1.9787,-1.9826,-1.9868,-1.9883,-1.9917,-1.9929,-1.9979,-1.996,-2.0029,-2.0002,-2.0027,-2.0044,-2.0047,-2.0054,-2.0033,-2.007,-2.0135,-2.0143,-2.0058,-2.0057,-2.0056,0,-1.9539,-1.9617,-1.9675,-1.9697,-1.9755,-1.9781,-1.9806,-1.9848,-1.9877,-1.9919,-1.9938,-1.9986,-2.0012,-2.0047,-2.0071,-2.0056,-2.0138,-2.0122,-2.0151,-2.0151,-2.0169,-2.0168,-2.0239,-2.0183,-2.0183,-2.0183,-2.0183,0,-1.9601,-1.9649,-1.9689,-1.9724,-1.9778,-1.9802,-1.9854,-1.988,-1.9916,-1.9956,-1.9968,-2.0005,-2.0034,-2.0075,-2.0094,-2.0147,-2.0159,-2.0172,-2.0176,-2.0171,-2.017,-2.0189,-2.0186,-2.0185,-2.0185,-2.0184,-2.0184,0,-1.9644,-1.9673,-1.9736,-1.9785,-1.9799,-1.9836,-1.9878,-1.9912,-1.9935,-1.9985,-1.9998,-2.0034,-2.0082,-2.0109,-2.017,-2.0182,-2.0242,-2.0244,-2.0228,-2.023,-2.0258,-2.0255,-2.0345,-2.0358,-2.0293,-2.0293,-2.0294,0,-1.9683,-1.972,-1.9773,-1.98,-1.9826,-1.987,-1.99,-1.9925,-1.9955,-2.0006,-2.0034,-2.0082,-2.0123,-2.0198,-2.023,-2.0275,-2.028,-2.0308,-2.0287,-2.028,-2.028,-2.0278,-2.0282,-2.0312,-2.0312,-2.0313,-2.0313,0,-1.9747,-1.9759,-1.9802,-1.985,-1.9885,-1.9923,-1.9962,-1.9983,-2.0014,-2.0047,-2.0097,-2.0128,-2.0189,-2.0237,-2.0285,-2.031,-2.0317,-2.0319,-2.0329,-2.0324,-2.0313,-2.032,-2.0239,-2.0317,-2.0317,-2.0317,-2.0316,-2.0316,-1.979,-1.9823,-1.9865,-1.9912,-1.9943,-1.9978,-2.0012,-2.0039,-2.0081,-2.0133,-2.0145,-2.0197,-2.0236,-2.0302,-2.0327,-2.0367,-2.0362,-2.0376,-2.0379,-2.0383,-2.0384,-2.0306,-2.0376,-2.0376,-2.0376,-2.0376,-2.0376,0,-1.9856,-1.9883,-1.9926,-1.9979,-2.0015,-2.0018,-2.0059,-2.009,-2.0135,-2.0172,-2.0211,-2.0267,-2.0313,-2.0347,-2.0394,-2.0419,-2.0423,-2.0431,-2.043,-2.0435,-2.0386,-2.0373,-2.0426,-2.0426,-2.0426,-2.0426,-2.0426,-2.0426,-1.9895,-1.9951,-1.9967,-2.0038,-2.0065,-2.0116,-2.014,-2.0171,-2.0201,-2.0263,-2.0301,-2.0323,-2.0358,-2.0407,-2.0449,-2.0458,-2.0475,-2.0482,-2.0491,-2.0444,-2.0439,-2.0434,-2.0422,-2.0485,-2.0485,-2.0537,-2.0538,-2.0538]}]]